User: anonymous
Location: UBC Liquid-Mirror Observatory
(49.2876°N, 122.5728°W)
Time: 17:07:44
(UTC-07:00)
Language:

Cosmos 1743 Rocket - Orbit

View from above orbital plane
View from above orbital plane
View from above satellite
View from above satellite

Ground track
Ground track

The orbit data is extracted from the following two-line orbital elements,

1 16720U 86034B   14109.87597608  .00000883  00000-0  10632-3 0  4193
2 16720 082.5552 237.2944 0019067 310.1196 165.7791 14.82697717508179
Epoch (UTC): 19 April 2014 21:01:24
Eccentricity: 0.0019067
inclination: 82.5552°
perigee height: 607 km
apogee height: 634 km
right ascension of ascending node: 237.2944°
argument of perigee: 310.1196°
revolutions per day: 14.82697717
mean anomaly at epoch: 165.7791°
orbit number at epoch: 50817

The dashed part of the orbit path shows where the satellite is in the earth's shadow,  

DLR